Weather History for KGDB - October, 2012

Change the Weather History Date:

Sunday, October 21, 2012

  Actual Average (KMVE) Record (KMVE)
Temperature  
Mean Temperature 50 °F -  
Max Temperature 59 °F 60 °F 82 °F (1953)
Min Temperature 41 °F 35 °F 20 °F (1982)
Degree Days  
Heating Degree Days 15    
Moisture  
Dew Point 43 °F    
Average Humidity 82    
Maximum Humidity 95    
Minimum Humidity 61    
Precipitation  
Precipitation 0.00 in - - ()
Sea Level Pressure  
Sea Level Pressure 29.81 in    
Wind  
Wind Speed 9 mph (NNW)    
Max Wind Speed 14 mph    
Max Gust Speed 18 mph    
Visibility 8 miles    
Events      
Averages and records for this station are not official NWS values.
T = Trace of Precipitation, MM = Missing Value Source: NWS Daily Summary

Daily Weather History Graph

Daily Weather History Graph

Search for Another Location

Airport or City:

Trip Planner

Search our weather history database for the weather conditions in past years. The results will help you decide how hot, cold, wet, or windy it might be!

Date:

Astronomy

Oct. 21, 2012 Rise Set
Actual Time 7:46 AM CDT 6:26 PM CDT
Civil Twilight 7:16 AM CDT 6:56 PM CDT
Nautical Twilight 6:42 AM CDT 7:30 PM CDT
Astronomical Twilight 6:08 AM CDT 8:04 PM CDT
Moon 2:12 PM CDT (10/21) No Moon Set
Length of Visible Light 11h 40m
Length of Day
10h 40m
Waxing Crescent, 45% of the Moon is Illuminated
Oct 21
Waxing Crescent
Oct 21
First Quarter
Oct 29
Full
Nov 6
Last Quarter
Nov 13
New

Hourly Weather History & Observations

Time (CDT) Temp. Windchill Dew Point Humidity Pressure Visibility Wind Dir Wind Speed Gust Speed Precip Events Conditions
12:32 AM 44.2 °F 38.8 °F 41.9 °F 91% 29.74 in 10.0 mi ESE 10.4 mph - N/A   Clear
12:52 AM 44.1 °F 38.1 °F 41.9 °F 92% 29.75 in 10.0 mi ESE 11.5 mph - N/A   Clear
1:12 AM 43.7 °F 37.7 °F 41.4 °F 91% 29.75 in 10.0 mi ESE 11.5 mph - N/A   Clear
1:32 AM 43.7 °F 37.7 °F 41.2 °F 91% 29.75 in 10.0 mi ESE 11.5 mph - N/A   Clear
2:12 AM 43.5 °F 37.9 °F 41.0 °F 91% 29.74 in 7.0 mi ESE 10.4 mph - N/A   Clear
2:32 AM 42.8 °F 37.0 °F 40.6 °F 92% 29.74 in 7.0 mi ESE 10.4 mph - N/A   Clear
3:12 AM 41.9 °F 37.5 °F 39.7 °F 92% 29.74 in 7.0 mi East 6.9 mph - N/A   Clear
3:32 AM 41.5 °F 37.8 °F 40.1 °F 95% 29.74 in 7.0 mi East 5.8 mph - N/A   Clear
3:52 AM 41.5 °F 36.4 °F 40.1 °F 95% 29.74 in 7.0 mi East 8.1 mph - N/A   Clear
4:12 AM 41.5 °F 36.4 °F 40.1 °F 95% 29.73 in 7.0 mi East 8.1 mph - N/A   Clear
4:32 AM 41.9 °F 35.9 °F 40.1 °F 93% 29.72 in 7.0 mi East 10.4 mph - N/A   Clear
5:12 AM 42.3 °F 36.8 °F 39.9 °F 91% 29.73 in 7.0 mi ESE 9.2 mph - N/A   Clear
6:12 AM 43.0 °F 36.0 °F 40.1 °F 90% 29.71 in 10.0 mi ESE 13.8 mph - N/A   Scattered Clouds
6:32 AM 42.8 °F 36.6 °F 40.3 °F 91% 29.71 in 10.0 mi East 11.5 mph - N/A   Scattered Clouds
6:52 AM 42.8 °F 40.1 °F 40.1 °F 90% 29.72 in 10.0 mi East 4.6 mph - N/A   Scattered Clouds
7:12 AM 42.6 °F 38.4 °F 39.9 °F 90% 29.71 in 10.0 mi East 6.9 mph - N/A   Clear
7:32 AM 42.1 °F 37.7 °F 39.6 °F 91% 29.70 in 7.0 mi East 6.9 mph - N/A   Clear
8:32 AM 42.8 °F 37.5 °F 40.3 °F 91% 29.70 in 7.0 mi East 9.2 mph - N/A   Clear
8:52 AM 43.5 °F 37.5 °F 40.6 °F 90% 29.70 in 7.0 mi ESE 11.5 mph - N/A   Clear
9:32 AM 46.9 °F - 42.3 °F 84% 29.74 in 10.0 mi ESE 8.1 mph - N/A   Clear
10:12 AM 48.7 °F - 43.3 °F 82% 29.74 in 10.0 mi SE 5.8 mph - N/A   Clear
10:32 AM 50.0 °F - 43.9 °F 79% 29.76 in 10.0 mi Calm Calm - N/A   Clear
10:52 AM 51.6 °F - 45.0 °F 78% 29.75 in 7.0 mi SSE 3.5 mph - N/A   Clear
11:12 AM 53.1 °F - 46.0 °F 77% 29.75 in 10.0 mi SSE 8.1 mph - N/A   Clear
11:32 AM 55.0 °F - 46.8 °F 74% 29.75 in 10.0 mi SSE 6.9 mph - N/A   Clear
12:12 PM 56.3 °F - 45.7 °F 68% 29.76 in 10.0 mi SW 4.6 mph - N/A   Clear
12:32 PM 56.8 °F - 45.9 °F 67% 29.76 in 10.0 mi WSW 4.6 mph - N/A   Clear
12:52 PM 59.0 °F - 46.4 °F 63% 29.76 in 10.0 mi WSW 6.9 mph - N/A   Clear
1:12 PM 59.2 °F - 46.6 °F 63% 29.78 in 10.0 mi WNW 8.1 mph - N/A   Clear
1:32 PM 58.6 °F - 45.7 °F 62% 29.78 in 10.0 mi West 4.6 mph - N/A   Clear
1:52 PM 58.3 °F - 46.0 °F 64% 29.78 in 10.0 mi WNW 9.2 mph - N/A   Clear
2:11 PM 58.6 °F - 45.7 °F 62% 29.78 in 10.0 mi West 8.1 mph - N/A   Clear
2:32 PM 58.6 °F - 46.0 °F 63% 29.80 in 10.0 mi West 10.4 mph - N/A   Clear
2:52 PM 58.6 °F - 46.2 °F 63% 29.80 in 7.0 mi NW 10.4 mph - N/A   Clear
3:12 PM 58.6 °F - 45.1 °F 61% 29.81 in 10.0 mi NW 11.5 mph - N/A   Clear
3:32 PM 58.1 °F - 45.7 °F 63% 29.83 in 10.0 mi WNW 10.4 mph 18.4 mph N/A   Clear
3:52 PM 57.2 °F - 45.3 °F 65% 29.83 in 10.0 mi NW 12.7 mph - N/A   Clear
4:12 PM 54.9 °F - 45.5 °F 71% 29.84 in 10.0 mi NW 10.4 mph - N/A   Clear
4:32 PM 54.1 °F - 45.5 °F 73% 29.83 in 10.0 mi NNW 10.4 mph - N/A   Clear
4:52 PM 54.9 °F - 45.5 °F 71% 29.84 in 10.0 mi NNW 13.8 mph - N/A   Clear
5:12 PM 54.1 °F - 45.9 °F 74% 29.85 in 10.0 mi NNW 9.2 mph - N/A   Clear
5:32 PM 54.0 °F - 46.2 °F 75% 29.86 in 10.0 mi NW 10.4 mph - N/A   Mostly Cloudy
5:52 PM 52.7 °F - 45.9 °F 78% 29.87 in 7.0 mi NW 6.9 mph - N/A   Mostly Cloudy
6:12 PM 52.3 °F - 46.4 °F 80% 29.88 in 7.0 mi NW 9.2 mph - N/A   Mostly Cloudy
6:32 PM 52.3 °F - 46.4 °F 80% 29.88 in 7.0 mi NNW 8.1 mph - N/A   Overcast
6:52 PM 50.2 °F - 45.1 °F 83% 29.89 in 10.0 mi NW 6.9 mph - N/A   Scattered Clouds
7:12 PM 49.3 °F - 45.0 °F 85% 29.89 in 10.0 mi NW 6.9 mph - N/A   Clear
7:32 PM 49.1 °F - 45.1 °F 86% 29.90 in 7.0 mi NW 8.1 mph - N/A   Clear
7:52 PM 48.7 °F - 45.0 °F 87% 29.91 in 7.0 mi NW 6.9 mph - N/A   Clear
8:12 PM 48.7 °F - 45.0 °F 87% 29.92 in 7.0 mi NW 6.9 mph - N/A   Clear
8:32 PM 48.4 °F - 44.8 °F 87% 29.93 in 7.0 mi NW 6.9 mph - N/A   Clear
8:52 PM 47.8 °F - 44.2 °F 87% 29.93 in 7.0 mi NNW 6.9 mph - N/A   Clear
9:12 PM 47.3 °F - 44.1 °F 88% 29.94 in 7.0 mi NW 8.1 mph - N/A   Clear
9:32 PM 46.9 °F - 43.3 °F 87% 29.94 in 7.0 mi WNW 6.9 mph - N/A   Clear
9:52 PM 44.6 °F 41.4 °F 42.3 °F 91% 29.94 in 7.0 mi WNW 5.8 mph - N/A   Clear
10:12 PM 43.7 °F 39.1 °F 42.1 °F 94% 29.94 in 7.0 mi NW 8.1 mph - N/A   Clear
10:31 PM 42.8 °F 39.3 °F 40.6 °F 92% 29.94 in 7.0 mi WNW 5.8 mph - N/A   Clear
10:52 PM 43.7 °F 39.1 °F 42.1 °F 94% 29.94 in 7.0 mi WNW 8.1 mph - N/A   Clear
11:32 PM 43.7 °F 39.1 °F 42.1 °F 94% 29.94 in 5.0 mi WNW 8.1 mph - N/A   Clear
11:52 PM 43.7 °F 38.1 °F 42.4 °F 95% 29.94 in 3.0 mi NW 10.4 mph - N/A   Clear